Location: Gro�sch�nbrunn
(49.5760°N, 11.8868°E)
Time: 12:55:42
(UTC+00:00)

ARIANE 5 R/B - Pass Details

Date: 18 September 2020
Orbit: 620 x 657 km, 98.2° (Epoch: 09 October)

Event Time Altitude Azimuth Distance (km) Brightness Sun altitude
Exits shadow 19:37:43 50° 60° (ENE) 802 2.9 -22.2°
Drops below altitude 10° 19:41:43 10° 355° (N) 2,003 5.6 -22.8°
Sets 19:43:57 0° 350° (N) 2,912 6.6 -23.1°
